TVF3231 GVAC-LFPO

Flight info

Callsign TVF3231
Flight time N/A
Altitude 33000
Route DIMKI1A DIMKI DCT IPERA N873 ODEGI/N0462F340 N873 GDV DCT VASTO DCT BAROK/N0453F360 DCT PORTA DCT RODAP DCT BABOV DCT BARDI DCT ZMR DCT NUBLO DCT RONSI DCT DELOG DCT YURZI UL14 TEPRA UN867 MOKOR UN741 ANG/N0428F270 UN482 DEKJA/N0435F280 UN482 NIMER
Aircraft B738/M-SDE2E3FGHIRWXY/LB1

Departure

Time 2026-04-21 12:38
Airport Amílcar Cabral International Airport (GVAC)

Arrival

Time N/A
Airport Paris-Orly Airport (LFPO)
Time Latitude Longitude Altitude Speed Heading
2026-04-21 12:16 16.73498 -22.94495 180 ft 0 kts 90°
2026-04-21 12:25 16.73498 -22.94502 180 ft 2 kts 91°
2026-04-21 12:26 16.73498 -22.94523 180 ft 3 kts 95°
2026-04-21 12:26 16.73501 -22.94544 180 ft 3 kts 100°
2026-04-21 12:26 16.73505 -22.94564 180 ft 3 kts 108°
2026-04-21 12:26 16.73513 -22.94583 180 ft 3 kts 126°
2026-04-21 12:27 16.73525 -22.94596 180 ft 2 kts 165°
2026-04-21 12:27 16.73531 -22.94598 180 ft 0 kts 179°
2026-04-21 12:33 16.73519 -22.94598 180 ft 3 kts 179°
2026-04-21 12:33 16.73486 -22.94597 180 ft 6 kts 178°
2026-04-21 12:33 16.73434 -22.94596 180 ft 9 kts 179°
2026-04-21 12:34 16.73368 -22.94595 180 ft 10 kts 180°
2026-04-21 12:34 16.73300 -22.94595 180 ft 10 kts 180°
2026-04-21 12:34 16.73233 -22.94595 180 ft 10 kts 180°
2026-04-21 12:34 16.73164 -22.94594 181 ft 11 kts 179°
2026-04-21 12:35 16.73086 -22.94611 181 ft 13 kts 220°
2026-04-21 12:35 16.73028 -22.94686 181 ft 14 kts 206°
2026-04-21 12:35 16.72922 -22.94691 181 ft 16 kts 179°
2026-04-21 12:35 16.72800 -22.94690 181 ft 19 kts 180°
2026-04-21 12:36 16.72656 -22.94690 181 ft 22 kts 180°
2026-04-21 12:36 16.72504 -22.94689 181 ft 8 kts 180°
2026-04-21 12:36 16.72452 -22.94689 181 ft 7 kts 185°
2026-04-21 12:36 16.72414 -22.94721 181 ft 9 kts 246°
2026-04-21 12:37 16.72407 -22.94798 181 ft 13 kts 269°
2026-04-21 12:37 16.72449 -22.94885 181 ft 16 kts 349°
2026-04-21 12:37 16.72624 -22.94888 181 ft 50 kts 359°
2026-04-21 12:37 16.73195 -22.94892 181 ft 114 kts 360°
2026-04-21 12:38 16.74178 -22.94900 205 ft 164 kts 359°
2026-04-21 12:38 16.75379 -22.94905 663 ft 178 kts
2026-04-21 12:38 16.76652 -22.94825 1274 ft 188 kts 12°
2026-04-21 12:38 16.77773 -22.94156 2033 ft 182 kts 42°
2026-04-21 12:39 16.78803 -22.93281 2449 ft 203 kts 37°
2026-04-21 12:39 16.80003 -22.92371 2644 ft 223 kts 35°
2026-04-21 12:39 16.81314 -22.91422 3044 ft 234 kts 34°
2026-04-21 12:39 16.82713 -22.90447 3350 ft 253 kts 33°
2026-04-21 12:40 16.84211 -22.89434 3992 ft 257 kts 32°
2026-04-21 12:40 16.85728 -22.88435 4792 ft 258 kts 32°
2026-04-21 12:40 16.87267 -22.87441 5503 ft 262 kts 31°
2026-04-21 12:40 16.88830 -22.86446 6213 ft 265 kts 31°
2026-04-21 12:41 16.90414 -22.85449 6923 ft 267 kts 31°
2026-04-21 12:41 16.92017 -22.84448 7608 ft 270 kts 31°
2026-04-21 12:41 16.93640 -22.83440 8290 ft 273 kts 31°
2026-04-21 12:41 16.95282 -22.82425 8965 ft 276 kts 31°
2026-04-21 12:42 16.96941 -22.81403 9604 ft 278 kts 30°
2026-04-21 12:42 16.98620 -22.80370 9975 ft 282 kts 30°
2026-04-21 12:42 17.00310 -22.79333 9990 ft 281 kts 30°
2026-04-21 12:42 17.01998 -22.78297 9998 ft 281 kts 30°
2026-04-21 12:43 17.03686 -22.77262 10008 ft 281 kts 30°
2026-04-21 12:43 17.05376 -22.76226 10014 ft 282 kts 30°
2026-04-21 12:43 17.07065 -22.75191 10012 ft 282 kts 30°
2026-04-21 12:43 17.08757 -22.74154 10008 ft 282 kts 30°
2026-04-21 12:44 17.10450 -22.73116 10002 ft 282 kts 30°
2026-04-21 12:44 17.12144 -22.72078 10000 ft 282 kts 30°
2026-04-21 12:44 17.13837 -22.71040 10000 ft 282 kts 30°
2026-04-21 12:44 17.15530 -22.70002 10000 ft 282 kts 30°
2026-04-21 12:45 17.17224 -22.68963 9999 ft 282 kts 30°
2026-04-21 12:45 17.18915 -22.67926 10001 ft 282 kts 30°
2026-04-21 12:45 17.20605 -22.66889 9999 ft 282 kts 30°
2026-04-21 12:45 17.22294 -22.65853 10000 ft 281 kts 30°
2026-04-21 12:46 17.23982 -22.64817 10000 ft 281 kts 30°
2026-04-21 12:46 17.25670 -22.63781 9999 ft 281 kts 30°
2026-04-21 12:46 17.27357 -22.62745 10006 ft 281 kts 30°
2026-04-21 12:46 17.29020 -22.61724 10004 ft 281 kts 30°
2026-04-21 12:47 17.30705 -22.60689 10000 ft 281 kts 30°
2026-04-21 12:47 17.32390 -22.59654 10004 ft 281 kts 30°
2026-04-21 12:47 17.34075 -22.58618 9999 ft 281 kts 30°
2026-04-21 12:47 17.35761 -22.57582 10003 ft 281 kts 30°
2026-04-21 12:48 17.37446 -22.56546 9999 ft 281 kts 30°
2026-04-21 12:48 17.39131 -22.55510 10002 ft 281 kts 30°
2026-04-21 12:48 17.40816 -22.54473 10000 ft 281 kts 30°
2026-04-21 12:48 17.42502 -22.53436 10000 ft 281 kts 30°
2026-04-21 12:49 17.44189 -22.52398 10002 ft 281 kts 30°
2026-04-21 12:49 17.45876 -22.51360 9999 ft 281 kts 30°
2026-04-21 12:49 17.47564 -22.50321 10011 ft 282 kts 30°
2026-04-21 12:49 17.49291 -22.49258 10114 ft 297 kts 30°
2026-04-21 12:50 17.51134 -22.48123 10289 ft 318 kts 30°
2026-04-21 12:50 17.53100 -22.46912 10460 ft 338 kts 30°
2026-04-21 12:50 17.55178 -22.45631 10685 ft 354 kts 30°
2026-04-21 12:50 17.57324 -22.44308 11185 ft 361 kts 30°
2026-04-21 12:51 17.59494 -22.42970 11817 ft 363 kts 30°
2026-04-21 12:51 17.61678 -22.41623 12442 ft 365 kts 30°
2026-04-21 12:51 17.63878 -22.40266 13025 ft 369 kts 30°
2026-04-21 12:51 17.66100 -22.38895 13600 ft 372 kts 30°
2026-04-21 12:52 17.68339 -22.37513 14169 ft 375 kts 30°
2026-04-21 12:52 17.70593 -22.36121 14727 ft 378 kts 30°
2026-04-21 12:52 17.72867 -22.34717 15271 ft 381 kts 30°
2026-04-21 12:52 17.75158 -22.33302 15801 ft 384 kts 30°
2026-04-21 12:53 17.77467 -22.31874 16325 ft 387 kts 30°
2026-04-21 12:53 17.79793 -22.30436 16836 ft 390 kts 30°
2026-04-21 12:53 17.82137 -22.28987 17335 ft 392 kts 30°
2026-04-21 12:53 17.84497 -22.27527 17821 ft 395 kts 30°
2026-04-21 12:54 17.86874 -22.26056 18301 ft 398 kts 30°
2026-04-21 12:54 17.89267 -22.24576 18769 ft 401 kts 30°
2026-04-21 12:54 17.91679 -22.23089 19222 ft 403 kts 30°
2026-04-21 12:54 17.94109 -22.21596 19669 ft 406 kts 30°
2026-04-21 12:55 17.96555 -22.20094 20099 ft 409 kts 30°
2026-04-21 12:55 17.99018 -22.18580 20532 ft 411 kts 30°
2026-04-21 12:55 18.01494 -22.17058 20948 ft 414 kts 30°
2026-04-21 12:55 18.03984 -22.15526 21355 ft 416 kts 30°
2026-04-21 12:56 18.06491 -22.13983 21739 ft 419 kts 30°
2026-04-21 12:56 18.09010 -22.12431 22121 ft 421 kts 30°
2026-04-21 12:56 18.11542 -22.10871 22485 ft 423 kts 30°
2026-04-21 12:56 18.14090 -22.09300 22854 ft 426 kts 30°
2026-04-21 12:57 18.16650 -22.07721 23206 ft 428 kts 30°
2026-04-21 12:57 18.19223 -22.06134 23550 ft 430 kts 30°
2026-04-21 12:57 18.21811 -22.04537 23883 ft 432 kts 30°
2026-04-21 12:57 18.24409 -22.02933 24206 ft 434 kts 30°
2026-04-21 12:58 18.27020 -22.01321 24525 ft 436 kts 30°
2026-04-21 12:58 18.29646 -21.99699 24833 ft 438 kts 30°
2026-04-21 12:58 18.32280 -21.98071 25141 ft 440 kts 30°
2026-04-21 12:58 18.34928 -21.96434 25427 ft 442 kts 30°
2026-04-21 12:59 18.37548 -21.94813 25708 ft 444 kts 30°
2026-04-21 12:59 18.40216 -21.93163 25985 ft 446 kts 30°
2026-04-21 12:59 18.42898 -21.91503 26254 ft 448 kts 30°
2026-04-21 12:59 18.45587 -21.89838 26517 ft 449 kts 30°
2026-04-21 13:00 18.48289 -21.88165 26774 ft 451 kts 30°
2026-04-21 13:00 18.50999 -21.86486 27023 ft 453 kts 30°
2026-04-21 13:00 18.53720 -21.84799 27265 ft 454 kts 30°
2026-04-21 13:00 18.56449 -21.83107 27501 ft 456 kts 30°
2026-04-21 13:01 18.59185 -21.81411 27773 ft 456 kts 30°
2026-04-21 13:01 18.61918 -21.79715 28118 ft 455 kts 30°
2026-04-21 13:01 18.64642 -21.78024 28471 ft 453 kts 30°
2026-04-21 13:01 18.67358 -21.76337 28778 ft 453 kts 30°
2026-04-21 13:02 18.70072 -21.74651 29063 ft 453 kts 30°
2026-04-21 13:02 18.72787 -21.72964 29348 ft 452 kts 30°
2026-04-21 13:02 18.78198 -21.69600 29940 ft 451 kts 30°
2026-04-21 13:03 18.80897 -21.67920 30211 ft 450 kts 30°
2026-04-21 13:03 18.83593 -21.66243 30475 ft 450 kts 30°
2026-04-21 13:03 18.86289 -21.64564 30745 ft 449 kts 30°
2026-04-21 13:03 18.88978 -21.62889 31010 ft 449 kts 30°
2026-04-21 13:04 18.91663 -21.61216 31260 ft 448 kts 30°
2026-04-21 13:04 18.94348 -21.59543 31508 ft 448 kts 30°
2026-04-21 13:04 18.97029 -21.57871 31755 ft 447 kts 30°
2026-04-21 13:04 18.99703 -21.56203 31988 ft 447 kts 30°
2026-04-21 13:05 19.02377 -21.54535 32231 ft 446 kts 30°
2026-04-21 13:05 19.05049 -21.52867 32454 ft 446 kts 31°
2026-04-21 13:05 19.07716 -21.51201 32678 ft 445 kts 31°
2026-04-21 13:05 19.10381 -21.49536 32908 ft 445 kts 31°
2026-04-21 13:06 19.13044 -21.47872 33110 ft 444 kts 31°
2026-04-21 13:06 19.15703 -21.46210 33319 ft 444 kts 31°
2026-04-21 13:06 19.18324 -21.44570 33522 ft 443 kts 31°
2026-04-21 13:06 19.20976 -21.42911 33718 ft 443 kts 31°
2026-04-21 13:07 19.23628 -21.41251 33912 ft 443 kts 31°
2026-04-21 13:07 19.26283 -21.39589 33997 ft 445 kts 31°
2026-04-21 13:07 19.31631 -21.36238 34004 ft 447 kts 31°
2026-04-21 13:08 19.36952 -21.32902 33992 ft 441 kts 31°
2026-04-21 13:08 19.42221 -21.29596 34002 ft 439 kts 31°
2026-04-21 13:09 19.47473 -21.26298 34000 ft 438 kts 31°
2026-04-21 13:09 19.52716 -21.23003 34003 ft 438 kts 31°
2026-04-21 13:10 19.57964 -21.19703 34003 ft 439 kts 31°
2026-04-21 13:10 19.63225 -21.16392 34004 ft 440 kts 31°
2026-04-21 13:11 19.68500 -21.13069 34003 ft 442 kts 31°
2026-04-21 13:11 19.73793 -21.09733 34003 ft 443 kts 31°
2026-04-21 13:12 19.78204 -21.06950 34002 ft 444 kts 31°
2026-04-21 13:12 19.83523 -21.03593 34002 ft 445 kts 31°
2026-04-21 13:13 19.88850 -21.00227 34001 ft 446 kts 31°
2026-04-21 13:13 19.94178 -20.96858 34001 ft 446 kts 31°
2026-04-21 13:14 19.99504 -20.93488 34001 ft 445 kts 31°
2026-04-21 13:14 20.04822 -20.90121 34000 ft 445 kts 31°
2026-04-21 13:15 20.10132 -20.86755 34000 ft 444 kts 31°
2026-04-21 13:15 20.15433 -20.83393 33999 ft 443 kts 31°
2026-04-21 13:16 20.20721 -20.80036 34001 ft 442 kts 31°
2026-04-21 13:16 20.25999 -20.76682 34001 ft 442 kts 31°
2026-04-21 13:17 20.31272 -20.73329 34001 ft 441 kts 31°
2026-04-21 13:17 20.36541 -20.69976 34002 ft 441 kts 31°
2026-04-21 13:18 20.41805 -20.66620 34002 ft 441 kts 31°
2026-04-21 13:18 20.47072 -20.63255 34002 ft 441 kts 31°
2026-04-21 13:19 20.52342 -20.59884 34002 ft 442 kts 31°
2026-04-21 13:19 20.57618 -20.56508 34002 ft 442 kts 31°
2026-04-21 13:20 20.62901 -20.53124 34002 ft 443 kts 31°
2026-04-21 13:20 20.68187 -20.49736 34002 ft 443 kts 31°
2026-04-21 13:21 20.73477 -20.46342 34002 ft 444 kts 31°
2026-04-21 13:21 20.78735 -20.42966 34002 ft 444 kts 31°
2026-04-21 13:22 20.84028 -20.39565 34001 ft 444 kts 31°
2026-04-21 13:22 20.89325 -20.36158 34001 ft 444 kts 31°
2026-04-21 13:23 20.94617 -20.32752 34001 ft 444 kts 31°
2026-04-21 13:23 20.99908 -20.29344 34001 ft 444 kts 31°
2026-04-21 13:24 21.05197 -20.25934 34000 ft 444 kts 31°
2026-04-21 13:24 21.10481 -20.22524 34001 ft 443 kts 31°
2026-04-21 13:25 21.15765 -20.19112 34001 ft 443 kts 31°
2026-04-21 13:25 21.21044 -20.15700 34001 ft 443 kts 31°
2026-04-21 13:26 21.26317 -20.12288 34001 ft 443 kts 31°
2026-04-21 13:26 21.31592 -20.08873 34001 ft 443 kts 31°
2026-04-21 13:27 21.36860 -20.05459 34002 ft 443 kts 31°
2026-04-21 13:27 21.42133 -20.02039 34002 ft 443 kts 31°
2026-04-21 13:28 21.47402 -19.98619 34002 ft 443 kts 31°
2026-04-21 13:28 21.52672 -19.95195 34002 ft 443 kts 31°
2026-04-21 13:29 21.57941 -19.91769 34001 ft 443 kts 31°
2026-04-21 13:29 21.63211 -19.88339 34002 ft 443 kts 31°
2026-04-21 13:30 21.68484 -19.84905 34002 ft 443 kts 31°
2026-04-21 13:30 21.73756 -19.81468 34002 ft 443 kts 31°
2026-04-21 13:31 21.79030 -19.78027 34002 ft 443 kts 31°
2026-04-21 13:31 21.84301 -19.74584 34002 ft 443 kts 31°
2026-04-21 13:32 21.89541 -19.71158 34002 ft 443 kts 31°
2026-04-21 13:32 21.94814 -19.67708 34001 ft 443 kts 31°
2026-04-21 13:33 22.00085 -19.64256 34001 ft 443 kts 31°
2026-04-21 13:33 22.05358 -19.60800 34001 ft 443 kts 31°
2026-04-21 13:34 22.10631 -19.57343 34001 ft 443 kts 31°
2026-04-21 13:34 22.15901 -19.53887 34001 ft 443 kts 31°
2026-04-21 13:35 22.21170 -19.50427 34001 ft 443 kts 31°
2026-04-21 13:35 22.26441 -19.46963 34001 ft 443 kts 31°
2026-04-21 13:36 22.31707 -19.43497 34001 ft 443 kts 31°
2026-04-21 13:36 22.36971 -19.40031 34001 ft 443 kts 31°
2026-04-21 13:37 22.42236 -19.36561 34002 ft 443 kts 31°
2026-04-21 13:37 22.47501 -19.33087 34000 ft 443 kts 31°
2026-04-21 13:38 22.52763 -19.29613 34002 ft 443 kts 31°
2026-04-21 13:38 22.58024 -19.26135 34002 ft 443 kts 31°
2026-04-21 13:39 22.63286 -19.22655 34001 ft 443 kts 31°
2026-04-21 13:39 22.68513 -19.19194 34002 ft 443 kts 31°
2026-04-21 13:40 22.73773 -19.15708 34002 ft 443 kts 31°
2026-04-21 13:40 22.79033 -19.12218 34002 ft 443 kts 31°
2026-04-21 13:41 22.84291 -19.08727 34002 ft 443 kts 31°
2026-04-21 13:41 22.89551 -19.05232 34002 ft 443 kts 31°
2026-04-21 13:42 22.94811 -19.01733 33999 ft 443 kts 31°
2026-04-21 13:42 23.00069 -18.98232 34002 ft 443 kts 31°
2026-04-21 13:43 23.05327 -18.94728 34002 ft 443 kts 31°
2026-04-21 13:43 23.10585 -18.91222 34001 ft 443 kts 31°
2026-04-21 13:44 23.15840 -18.87713 34002 ft 443 kts 31°
2026-04-21 13:44 23.21096 -18.84200 34001 ft 443 kts 31°
2026-04-21 13:45 23.26353 -18.80684 34001 ft 443 kts 31°
2026-04-21 13:45 23.31606 -18.77167 34002 ft 443 kts 32°
2026-04-21 13:46 23.36825 -18.73670 34001 ft 443 kts 32°
2026-04-21 13:46 23.42080 -18.70145 34000 ft 443 kts 32°
2026-04-21 13:47 23.47330 -18.66620 34001 ft 443 kts 32°
2026-04-21 13:47 23.52584 -18.63089 34001 ft 443 kts 32°
2026-04-21 13:48 23.57832 -18.59559 34001 ft 443 kts 32°
2026-04-21 13:48 23.63083 -18.56024 34002 ft 443 kts 32°
2026-04-21 13:49 23.68331 -18.52486 34001 ft 443 kts 32°
2026-04-21 13:49 23.73579 -18.48946 34002 ft 443 kts 32°
2026-04-21 13:50 23.78828 -18.45402 34001 ft 443 kts 32°
2026-04-21 13:50 23.84074 -18.41856 34001 ft 443 kts 32°
2026-04-21 13:51 23.89319 -18.38307 34001 ft 443 kts 32°
2026-04-21 13:51 23.94565 -18.34755 34002 ft 444 kts 32°
2026-04-21 13:52 23.99809 -18.31200 34002 ft 444 kts 32°
2026-04-21 13:52 24.05053 -18.27642 34000 ft 444 kts 32°
2026-04-21 13:53 24.10296 -18.24081 34002 ft 444 kts 32°
2026-04-21 13:53 24.15541 -18.20515 34002 ft 444 kts 32°
2026-04-21 13:54 24.20782 -18.16948 34002 ft 444 kts 32°
2026-04-21 13:54 24.26024 -18.13378 34001 ft 444 kts 32°
2026-04-21 13:55 24.31262 -18.09806 34001 ft 444 kts 32°
2026-04-21 13:55 24.36504 -18.06228 34001 ft 444 kts 32°
2026-04-21 13:56 24.41741 -18.02650 34001 ft 444 kts 32°
2026-04-21 13:56 24.46944 -17.99092 34001 ft 444 kts 32°
2026-04-21 13:57 24.52179 -17.95508 34001 ft 444 kts 32°
2026-04-21 13:57 24.57415 -17.91920 34000 ft 444 kts 32°
2026-04-21 13:58 24.62650 -17.88329 34001 ft 444 kts 32°
2026-04-21 13:58 24.67885 -17.84735 34000 ft 444 kts 32°
2026-04-21 13:59 24.73118 -17.81138 34001 ft 444 kts 32°
2026-04-21 13:59 24.78349 -17.77538 34001 ft 444 kts 32°
2026-04-21 14:00 24.83580 -17.73936 34001 ft 444 kts 32°
2026-04-21 14:00 24.88811 -17.70329 34001 ft 444 kts 32°
2026-04-21 14:01 24.94039 -17.66721 34002 ft 444 kts 32°
2026-04-21 14:01 24.99269 -17.63108 34001 ft 444 kts 32°
2026-04-21 14:02 25.04495 -17.59490 34001 ft 444 kts 32°
2026-04-21 14:03 25.11445 -17.54668 34001 ft 444 kts 32°
2026-04-21 14:03 25.16669 -17.51038 34001 ft 444 kts 32°
2026-04-21 14:04 25.21890 -17.47407 34002 ft 444 kts 32°
2026-04-21 14:04 25.27109 -17.43774 34001 ft 444 kts 32°
2026-04-21 14:05 25.32329 -17.40136 34000 ft 444 kts 32°
2026-04-21 14:05 25.37547 -17.36495 34001 ft 444 kts 32°
2026-04-21 14:06 25.42766 -17.32851 34001 ft 444 kts 32°
2026-04-21 14:06 25.47981 -17.29205 34001 ft 444 kts 32°
2026-04-21 14:07 25.53199 -17.25553 34001 ft 444 kts 32°
2026-04-21 14:07 25.58414 -17.21900 34001 ft 444 kts 32°
2026-04-21 14:08 25.63627 -17.18244 34001 ft 444 kts 32°
2026-04-21 14:08 25.68840 -17.14585 34000 ft 444 kts 32°
2026-04-21 14:09 25.74050 -17.10923 34001 ft 444 kts 32°
2026-04-21 14:09 25.79264 -17.07255 34001 ft 444 kts 32°
2026-04-21 14:10 25.84472 -17.03587 34001 ft 443 kts 32°
2026-04-21 14:10 25.89682 -16.99914 34001 ft 443 kts 32°
2026-04-21 14:11 25.94856 -16.96262 34001 ft 443 kts 32°
2026-04-21 14:11 26.00062 -16.92584 34001 ft 443 kts 32°
2026-04-21 14:12 26.05268 -16.88902 34001 ft 443 kts 32°
2026-04-21 14:12 26.10475 -16.85215 34002 ft 443 kts 32°
2026-04-21 14:13 26.15679 -16.81526 34001 ft 443 kts 32°
2026-04-21 14:13 26.20881 -16.77836 34002 ft 443 kts 32°
2026-04-21 14:14 26.26091 -16.74153 34001 ft 443 kts 32°
2026-04-21 14:14 26.31302 -16.70469 34001 ft 443 kts 32°
2026-04-21 14:15 26.36510 -16.66780 34002 ft 443 kts 32°
2026-04-21 14:15 26.41718 -16.63086 34001 ft 443 kts 32°
2026-04-21 14:16 26.46922 -16.59391 34001 ft 443 kts 32°
2026-04-21 14:16 26.52125 -16.55692 34001 ft 443 kts 32°
2026-04-21 14:17 26.57331 -16.51987 34001 ft 443 kts 32°
2026-04-21 14:17 26.62533 -16.48282 34001 ft 443 kts 32°
2026-04-21 14:18 26.67735 -16.44571 34001 ft 443 kts 32°
2026-04-21 14:18 26.72933 -16.40859 34001 ft 443 kts 32°
2026-04-21 14:19 26.78135 -16.37141 34001 ft 443 kts 32°
2026-04-21 14:19 26.83334 -16.33420 34002 ft 443 kts 32°
2026-04-21 14:20 26.88530 -16.29698 34001 ft 443 kts 32°
2026-04-21 14:20 26.93724 -16.25967 34001 ft 443 kts 33°
2026-04-21 14:21 26.98921 -16.22222 34057 ft 446 kts 33°
2026-04-21 14:21 27.01528 -16.20340 34257 ft 445 kts 33°
2026-04-21 14:21 27.04129 -16.18463 34515 ft 443 kts 33°
2026-04-21 14:21 27.06717 -16.16594 34773 ft 442 kts 33°
2026-04-21 14:22 27.09296 -16.14731 34981 ft 441 kts 33°
2026-04-21 14:22 27.14482 -16.10980 34999 ft 444 kts 33°
2026-04-21 14:23 27.19658 -16.07234 34997 ft 441 kts 33°
2026-04-21 14:23 27.24789 -16.03515 34996 ft 438 kts 33°
2026-04-21 14:24 27.29893 -15.99812 34997 ft 436 kts 33°
2026-04-21 14:24 27.34981 -15.96116 34998 ft 435 kts 33°
2026-04-21 14:25 27.40070 -15.92416 35003 ft 436 kts 33°
2026-04-21 14:25 27.45172 -15.88702 35001 ft 438 kts 33°
2026-04-21 14:26 27.50299 -15.84966 35010 ft 440 kts 33°
2026-04-21 14:26 27.55444 -15.81211 35007 ft 442 kts 33°
2026-04-21 14:27 27.60615 -15.77434 35009 ft 443 kts 33°
2026-04-21 14:27 27.65765 -15.73667 35003 ft 445 kts 33°
2026-04-21 14:28 27.70957 -15.69867 35000 ft 445 kts 33°
2026-04-21 14:28 27.76152 -15.66065 35002 ft 445 kts 33°
2026-04-21 14:29 27.81345 -15.62266 34999 ft 444 kts 33°
2026-04-21 14:29 27.86529 -15.58467 34996 ft 444 kts 33°
2026-04-21 14:30 27.91713 -15.54663 35014 ft 444 kts 33°
2026-04-21 14:30 27.96904 -15.50849 35006 ft 445 kts 33°
2026-04-21 14:31 28.02100 -15.47026 35012 ft 446 kts 33°
2026-04-21 14:31 28.07312 -15.43188 35001 ft 447 kts 33°
2026-04-21 14:32 28.12510 -15.39343 35000 ft 446 kts 33°
2026-04-21 14:32 28.17691 -15.35492 34992 ft 444 kts 33°
2026-04-21 14:33 28.22851 -15.31653 34992 ft 443 kts 33°
2026-04-21 14:33 28.27989 -15.27826 34994 ft 441 kts 33°
2026-04-21 14:34 28.33071 -15.24038 35004 ft 439 kts 33°
2026-04-21 14:34 28.38171 -15.20232 35005 ft 438 kts 33°
2026-04-21 14:35 28.43264 -15.16426 35008 ft 438 kts 33°
2026-04-21 14:35 28.48352 -15.12620 34998 ft 438 kts 33°
2026-04-21 14:36 28.53444 -15.08807 35002 ft 439 kts 33°
2026-04-21 14:36 28.58543 -15.04983 35003 ft 439 kts 33°
2026-04-21 14:37 28.63650 -15.01150 35004 ft 440 kts 33°
2026-04-21 14:37 28.68771 -14.97301 35004 ft 441 kts 33°
2026-04-21 14:38 28.73900 -14.93441 35007 ft 442 kts 33°
2026-04-21 14:38 28.79037 -14.89572 35004 ft 443 kts 33°
2026-04-21 14:39 28.84177 -14.85694 35001 ft 443 kts 33°
2026-04-21 14:39 28.89321 -14.81809 34997 ft 443 kts 33°
2026-04-21 14:40 28.94461 -14.77923 34999 ft 443 kts 33°
2026-04-21 14:40 28.99595 -14.74036 35007 ft 443 kts 33°
2026-04-21 14:41 29.04727 -14.70147 35003 ft 442 kts 33°
2026-04-21 14:41 29.09847 -14.66262 35000 ft 442 kts 33°
2026-04-21 14:42 29.14964 -14.62374 35003 ft 441 kts 33°
2026-04-21 14:42 29.20073 -14.58487 35001 ft 441 kts 33°
2026-04-21 14:43 29.25177 -14.54600 35005 ft 440 kts 33°
2026-04-21 14:43 29.30276 -14.50712 34997 ft 440 kts 33°
2026-04-21 14:44 29.35393 -14.46805 35220 ft 442 kts 33°
2026-04-21 14:44 29.37947 -14.44853 35468 ft 440 kts 33°
2026-04-21 14:44 29.40489 -14.42909 35711 ft 438 kts 33°
2026-04-21 14:44 29.43022 -14.40971 35904 ft 438 kts 33°
2026-04-21 14:45 29.45522 -14.39057 35994 ft 439 kts 33°
2026-04-21 14:45 29.50621 -14.35150 35997 ft 440 kts 34°
2026-04-21 14:46 29.55698 -14.31255 35998 ft 437 kts 34°
2026-04-21 14:46 29.60740 -14.27381 35998 ft 435 kts 34°
2026-04-21 14:47 29.65758 -14.23522 36001 ft 433 kts 34°
2026-04-21 14:47 29.70761 -14.19669 36001 ft 433 kts 34°
2026-04-21 14:48 29.75761 -14.15814 36004 ft 433 kts 34°
2026-04-21 14:48 29.80776 -14.11943 36003 ft 434 kts 34°
2026-04-21 14:49 29.85805 -14.08057 36003 ft 436 kts 34°
2026-04-21 14:49 29.90854 -14.04149 36003 ft 438 kts 34°
2026-04-21 14:50 29.95097 -14.00862 36004 ft 439 kts 34°
2026-04-21 14:50 30.01002 -13.96281 36004 ft 441 kts 34°
2026-04-21 14:51 30.06094 -13.92326 36000 ft 442 kts 34°
2026-04-21 14:51 30.11195 -13.88359 35999 ft 442 kts 34°
2026-04-21 14:52 30.15428 -13.85062 35998 ft 442 kts 34°
2026-04-21 14:52 30.20520 -13.81093 35998 ft 441 kts 34°
2026-04-21 14:53 30.25600 -13.77127 36005 ft 440 kts 34°
2026-04-21 14:53 30.30671 -13.73164 35998 ft 439 kts 34°
2026-04-21 14:54 30.35725 -13.69209 36000 ft 438 kts 34°
2026-04-21 14:54 30.40769 -13.65256 36003 ft 437 kts 34°
2026-04-21 14:55 30.45804 -13.61305 36001 ft 437 kts 34°
2026-04-21 14:55 30.50835 -13.57363 36001 ft 436 kts 33°
2026-04-21 14:56 30.56128 -13.53928 36009 ft 436 kts 27°
2026-04-21 14:56 30.61533 -13.50739 36000 ft 436 kts 27°
2026-04-21 14:57 30.66940 -13.47529 36000 ft 437 kts 27°
2026-04-21 14:57 30.72334 -13.44272 36000 ft 437 kts 27°
2026-04-21 14:58 30.77723 -13.40989 36002 ft 438 kts 27°
2026-04-21 14:58 30.83121 -13.37691 36002 ft 438 kts 27°
2026-04-21 14:59 30.88520 -13.34388 36001 ft 439 kts 27°
2026-04-21 14:59 30.93927 -13.31077 36002 ft 439 kts 27°
2026-04-21 15:00 30.99337 -13.27759 36003 ft 440 kts 28°
2026-04-21 15:00 31.04750 -13.24436 36001 ft 440 kts 28°
2026-04-21 15:01 31.10125 -13.21132 36005 ft 440 kts 28°
2026-04-21 15:01 31.15537 -13.17801 35999 ft 440 kts 28°
2026-04-21 15:02 31.20944 -13.14469 36000 ft 439 kts 28°
2026-04-21 15:02 31.26348 -13.11134 36002 ft 439 kts 28°
2026-04-21 15:03 31.31746 -13.07799 35999 ft 439 kts 28°
2026-04-21 15:03 31.37143 -13.04459 36000 ft 438 kts 28°
2026-04-21 15:04 31.42532 -13.01121 36000 ft 438 kts 28°
2026-04-21 15:04 31.47920 -12.97779 35999 ft 438 kts 28°
2026-04-21 15:05 31.53304 -12.94434 35999 ft 438 kts 28°
2026-04-21 15:05 31.61374 -12.89414 36004 ft 438 kts 28°
2026-04-21 15:06 31.66750 -12.86063 36002 ft 438 kts 28°
2026-04-21 15:06 31.72130 -12.82706 36002 ft 438 kts 28°
2026-04-21 15:07 31.77509 -12.79345 36000 ft 438 kts 28°
2026-04-21 15:07 31.82891 -12.75978 36002 ft 438 kts 28°
2026-04-21 15:08 31.88271 -12.72608 36000 ft 438 kts 28°
2026-04-21 15:08 31.93652 -12.69232 36001 ft 438 kts 28°
2026-04-21 15:09 31.99036 -12.65850 35999 ft 439 kts 28°
2026-04-21 15:09 32.04383 -12.62486 36000 ft 439 kts 28°
2026-04-21 15:10 32.09768 -12.59094 36001 ft 439 kts 28°
2026-04-21 15:10 32.15152 -12.55699 36003 ft 439 kts 28°
2026-04-21 15:11 32.20534 -12.52299 35999 ft 439 kts 28°
2026-04-21 15:11 32.25918 -12.48895 35999 ft 439 kts 28°
2026-04-21 15:12 32.31304 -12.45484 36000 ft 439 kts 28°
2026-04-21 15:12 32.36684 -12.42072 36001 ft 439 kts 28°
2026-04-21 15:13 32.42062 -12.38657 36006 ft 439 kts 28°
2026-04-21 15:13 32.47440 -12.35237 36000 ft 439 kts 28°
2026-04-21 15:14 32.52816 -12.31814 36004 ft 439 kts 28°
2026-04-21 15:14 32.58191 -12.28388 36001 ft 438 kts 28°
2026-04-21 15:15 32.63562 -12.24958 35999 ft 438 kts 28°
2026-04-21 15:15 32.68932 -12.21524 35999 ft 438 kts 28°
2026-04-21 15:16 32.74299 -12.18088 36002 ft 438 kts 28°
2026-04-21 15:16 32.79668 -12.14646 36001 ft 438 kts 28°
2026-04-21 15:17 32.85034 -12.11201 36003 ft 438 kts 28°
2026-04-21 15:17 32.90398 -12.07752 36002 ft 438 kts 28°
2026-04-21 15:18 32.95728 -12.04321 35999 ft 438 kts 28°
2026-04-21 15:18 33.01093 -12.00863 36003 ft 438 kts 28°
2026-04-21 15:19 33.06457 -11.97400 36000 ft 438 kts 28°
2026-04-21 15:19 33.11821 -11.93932 36001 ft 439 kts 28°
2026-04-21 15:20 33.17183 -11.90460 35999 ft 439 kts 28°
2026-04-21 15:20 33.22547 -11.86983 36002 ft 439 kts 28°
2026-04-21 15:21 33.27911 -11.83501 35999 ft 439 kts 28°
2026-04-21 15:21 33.33271 -11.80016 36001 ft 439 kts 28°
2026-04-21 15:22 33.38633 -11.76525 35999 ft 439 kts 28°
2026-04-21 15:22 33.43993 -11.73030 35999 ft 439 kts 28°
2026-04-21 15:23 33.49354 -11.69530 36002 ft 439 kts 28°
2026-04-21 15:23 33.54711 -11.66027 36002 ft 439 kts 28°
2026-04-21 15:24 33.60070 -11.62518 36001 ft 439 kts 28°
2026-04-21 15:24 33.65424 -11.59008 36001 ft 439 kts 28°
2026-04-21 15:25 33.70779 -11.55491 36002 ft 439 kts 28°
2026-04-21 15:25 33.76134 -11.51970 36004 ft 439 kts 28°
2026-04-21 15:26 33.81488 -11.48444 35999 ft 439 kts 28°
2026-04-21 15:26 33.86838 -11.44916 36003 ft 439 kts 28°
2026-04-21 15:27 33.92188 -11.41383 36000 ft 439 kts 28°
2026-04-21 15:27 33.97501 -11.37869 36003 ft 439 kts 28°
2026-04-21 15:28 34.02850 -11.34326 36001 ft 439 kts 28°
2026-04-21 15:28 34.08233 -11.30756 35999 ft 439 kts 29°
2026-04-21 15:29 34.13544 -11.27228 36001 ft 439 kts 29°
2026-04-21 15:29 34.18891 -11.23671 36005 ft 439 kts 29°
2026-04-21 15:30 34.24233 -11.20112 36003 ft 439 kts 29°
2026-04-21 15:30 34.29579 -11.16546 35999 ft 439 kts 29°
2026-04-21 15:31 34.34921 -11.12976 35999 ft 439 kts 29°
2026-04-21 15:31 34.40261 -11.09403 35999 ft 439 kts 29°
2026-04-21 15:32 34.45605 -11.05822 35999 ft 439 kts 29°
2026-04-21 15:32 34.50944 -11.02239 36002 ft 439 kts 29°
2026-04-21 15:33 34.56282 -10.98651 36005 ft 439 kts 29°
2026-04-21 15:33 34.61621 -10.95057 36002 ft 439 kts 29°
2026-04-21 15:34 34.66958 -10.91460 36001 ft 439 kts 29°
2026-04-21 15:34 34.72296 -10.87856 36003 ft 439 kts 29°
2026-04-21 15:35 34.77631 -10.84249 36002 ft 439 kts 29°
2026-04-21 15:35 34.82963 -10.80639 36002 ft 439 kts 29°
2026-04-21 15:36 34.88298 -10.77021 36000 ft 439 kts 29°
2026-04-21 15:36 34.93595 -10.73423 36000 ft 439 kts 29°
2026-04-21 15:37 34.98925 -10.69798 36003 ft 439 kts 29°
2026-04-21 15:37 35.04255 -10.66167 35999 ft 439 kts 29°
2026-04-21 15:38 35.09583 -10.62533 35999 ft 439 kts 29°
2026-04-21 15:38 35.14911 -10.58892 35999 ft 439 kts 29°
2026-04-21 15:39 35.20239 -10.55247 36003 ft 439 kts 29°
2026-04-21 15:39 35.25565 -10.51597 36002 ft 439 kts 29°
2026-04-21 15:40 35.30888 -10.47943 36003 ft 439 kts 29°
2026-04-21 15:40 35.36212 -10.44283 36004 ft 439 kts 29°
2026-04-21 15:41 35.41534 -10.40619 36003 ft 439 kts 29°
2026-04-21 15:41 35.46857 -10.36948 36003 ft 439 kts 29°
2026-04-21 15:42 35.51279 -10.33895 36003 ft 439 kts 29°
2026-04-21 15:42 35.56598 -10.30217 35999 ft 439 kts 29°
2026-04-21 15:43 35.61918 -10.26533 35999 ft 439 kts 29°
2026-04-21 15:43 35.67234 -10.22845 35999 ft 439 kts 29°
2026-04-21 15:44 35.72549 -10.19153 35999 ft 439 kts 29°
2026-04-21 15:44 35.77867 -10.15453 36003 ft 439 kts 29°
2026-04-21 15:45 35.83179 -10.11751 36000 ft 439 kts 29°
2026-04-21 15:45 35.88492 -10.08042 36004 ft 439 kts 30°
2026-04-21 15:46 35.93806 -10.04328 36004 ft 439 kts 30°
2026-04-21 15:46 35.99096 -10.00568 36003 ft 439 kts 31°
2026-04-21 15:47 36.04282 -9.96586 36003 ft 439 kts 32°
2026-04-21 15:47 36.09443 -9.92558 36002 ft 439 kts 32°
2026-04-21 15:48 36.14616 -9.88544 36000 ft 439 kts 32°
2026-04-21 15:48 36.19795 -9.84542 36000 ft 439 kts 32°
2026-04-21 15:49 36.24976 -9.80540 36003 ft 439 kts 32°
2026-04-21 15:49 36.30155 -9.76534 36002 ft 439 kts 32°
2026-04-21 15:50 36.35335 -9.72521 36002 ft 439 kts 32°
2026-04-21 15:50 36.40510 -9.68505 36000 ft 439 kts 32°
2026-04-21 15:51 36.45688 -9.64479 36004 ft 439 kts 32°
2026-04-21 15:51 36.50862 -9.60450 36000 ft 439 kts 32°
2026-04-21 15:52 36.56034 -9.56417 36002 ft 439 kts 32°
2026-04-21 15:52 36.61206 -9.52377 36000 ft 439 kts 32°
2026-04-21 15:53 36.66378 -9.48331 36000 ft 439 kts 32°
2026-04-21 15:53 36.71546 -9.44281 36003 ft 439 kts 32°
2026-04-21 15:54 36.76715 -9.40224 36000 ft 439 kts 32°
2026-04-21 15:54 36.81843 -9.36193 36003 ft 439 kts 32°
2026-04-21 15:55 36.87009 -9.32125 36006 ft 439 kts 32°
2026-04-21 15:55 36.92175 -9.28050 35999 ft 439 kts 32°
2026-04-21 15:56 36.97336 -9.23973 36000 ft 439 kts 32°
2026-04-21 15:56 37.02500 -9.19887 36006 ft 439 kts 32°
2026-04-21 15:57 37.07656 -9.15800 35999 ft 439 kts 32°
2026-04-21 15:57 37.12815 -9.11705 36003 ft 439 kts 32°
2026-04-21 15:58 37.17973 -9.07604 36002 ft 439 kts 32°
2026-04-21 15:58 37.23128 -9.03498 36006 ft 439 kts 32°
2026-04-21 15:59 37.28282 -8.99387 36001 ft 439 kts 32°
2026-04-21 15:59 37.33436 -8.95268 36002 ft 439 kts 32°
2026-04-21 16:00 37.38589 -8.91144 36002 ft 439 kts 32°
2026-04-21 16:00 37.43736 -8.87017 36000 ft 439 kts 32°
2026-04-21 16:01 37.48888 -8.82880 36000 ft 439 kts 32°
2026-04-21 16:01 37.54034 -8.78740 35999 ft 439 kts 32°
2026-04-21 16:02 37.59181 -8.74594 36000 ft 439 kts 32°
2026-04-21 16:02 37.64327 -8.70440 36004 ft 439 kts 32°
2026-04-21 16:03 37.69474 -8.66279 36000 ft 439 kts 32°
2026-04-21 16:03 37.74620 -8.62112 36002 ft 439 kts 33°
2026-04-21 16:04 37.79765 -8.57939 36004 ft 440 kts 33°
2026-04-21 16:04 37.84913 -8.53757 36001 ft 440 kts 33°
2026-04-21 16:05 37.90029 -8.49593 35999 ft 440 kts 33°
2026-04-21 16:05 37.95208 -8.45370 35999 ft 440 kts 33°
2026-04-21 16:06 38.00323 -8.41194 36000 ft 440 kts 33°
2026-04-21 16:06 38.05466 -8.36987 36002 ft 440 kts 33°
2026-04-21 16:07 38.10609 -8.32773 35999 ft 440 kts 33°
2026-04-21 16:07 38.15746 -8.28556 36002 ft 440 kts 33°
2026-04-21 16:08 38.23454 -8.22216 35999 ft 440 kts 33°
2026-04-21 16:09 38.28587 -8.17985 36002 ft 440 kts 33°
2026-04-21 16:09 38.33715 -8.13751 36002 ft 439 kts 33°
2026-04-21 16:10 38.38847 -8.09506 36000 ft 440 kts 33°
2026-04-21 16:10 38.43976 -8.05257 36000 ft 440 kts 33°
2026-04-21 16:11 38.49106 -8.00999 36001 ft 440 kts 33°
2026-04-21 16:11 38.54235 -7.96735 36002 ft 440 kts 33°
2026-04-21 16:12 38.58496 -7.93187 36000 ft 440 kts 33°
2026-04-21 16:12 38.64497 -7.88181 36002 ft 441 kts 33°
2026-04-21 16:13 38.69596 -7.83919 35999 ft 441 kts 33°
2026-04-21 16:13 38.74731 -7.79620 36003 ft 441 kts 33°
2026-04-21 16:14 38.79869 -7.75312 36000 ft 441 kts 33°
2026-04-21 16:14 38.85007 -7.70995 36000 ft 441 kts 33°
2026-04-21 16:15 38.89883 -7.66891 35999 ft 442 kts 33°
2026-04-21 16:15 38.95020 -7.62561 36005 ft 442 kts 33°
2026-04-21 16:16 39.00155 -7.58225 36002 ft 442 kts 33°
2026-04-21 16:16 39.04220 -7.54786 35999 ft 441 kts 33°